FENGYUN 1C DEB, 30118

Orbit data source: Space-Track

FENGYUN 1C DEB, 30118 is space debris in SSO originally from a launch on Mon, 10 May 1999 UTC launched from the Taiyaun Space Center, China (TSC). Fengyun 1C debris stems from the Chinese weather satellite Fengyun-1C, which was intentionally destroyed by a Chinese anti-satellite missile in 2007. This event dramatically increased the amount of space debris, with thousands of trackable fragments posing hazards to satellites and human spaceflight. The Fengyun 1C debris cloud has become a focal point in discussions about space sustainability and the need for international regulations to prevent the creation of new debris.

Loading next visibility...
Identifier
30118, 1999-025RX
Orbit
SSO
Country
Flag of CNCN / PRC
Related business
Manufacturer
Unknown
Mission
Spacecraft
Bus & Motor
Unknown
Mass
Unknown
Launch date (UTC)
1999-05-10 (27 years ago)
Launch vehicle
Unknown
Launch site
Taiyaun Space Center, China (TSC)
Object type
Payload
Rocket body
Debris
Shape & HBR
Unknown shape, 0.1 m
Radar Cross Section
Medium (>0.1 m² and <1 m²)

Expand to show TLE details & history
Last TLE update: 16 hours ago

TLE from 16 hours ago
0 FENGYUN 1C DEB
1 30118U 99025RX  26165.93289843  .00000125  00000-0  10098-3 0  9993
2 30118  98.8040 169.3362 0083148 262.9555 156.5361 14.05198216995188
Epoch: 2026-06-14T22:23Z
TLE epoch observation values (Epoch: 2026-06-14T22:23:22.424Z)
Latitude
58.82025°
Longitude
-84.48408°
Altitude
941.178 km
Speed
7.358 km/s
True Right ascension
10h 18m 20s
True Declination
58° 40' 17"
Sunlit
Object was in daylight at epoch
Visualization orbit readout
Latitude
Unknown
Longitude
Unknown
Altitude
Unknown
Speed
Unknown
Apparent Right ascension
Unknown
Apparent Declination
Unknown
Sunlit
N/A
Visualization observer readout
Local Sidereal Time
01:10:05
Azimuth
Unknown
Elevation
Unknown
Doppler factor
Unknown
Orbital elements
Apogee altitude
933.325 km
Perigee altitude
812.741 km
Semi-major axis
7,251.17 km
Eccentricity
0.00831
Inclination
98.804°
RAAN
169.3362°
Arg. of periapsis
262.9555°
True anomaly
156.91189°
Mean anomaly
156.5361°
Eccentric anomaly
156.72435°
Mean motion
3.51505 °/min
Orbital period
102.42 mins
BSTAR
0.00010098
Loading maneuver chart data...
Computing Atmospheric mass density...
Loading historical data...
Loading historical data...
Loading historical data...
Loading historical data...
Loading historical data...
Loading historical data...
Loading historical data...

Documentation

Showing up to 5 results
|